Year,Month,Day,Hour,Minute,Value (Times are PST for windspeed in km/hr)
2021,02,12,00,00,32.70
2021,02,12,00,01,35.00
2021,02,12,00,02,36.60
2021,02,12,00,03,33.00
2021,02,12,00,04,39.40
2021,02,12,00,05,27.40
2021,02,12,00,06,25.70
2021,02,12,00,07,24.80
2021,02,12,00,08,26.00
2021,02,12,00,09,28.40
2021,02,12,00,10,35.50
2021,02,12,00,11,27.50
2021,02,12,00,12,28.60
2021,02,12,00,13,33.10
2021,02,12,00,14,36.50
2021,02,12,00,15,26.80
2021,02,12,00,16,24.70
2021,02,12,00,17,30.20
2021,02,12,00,18,32.20
2021,02,12,00,19,36.20
2021,02,12,00,20,34.30
2021,02,12,00,21,25.30
2021,02,12,00,22,26.50
2021,02,12,00,23,27.40
2021,02,12,00,24,31.00
2021,02,12,00,25,36.00
2021,02,12,00,26,40.50
2021,02,12,00,27,43.10
2021,02,12,00,28,34.30
2021,02,12,00,29,32.80
2021,02,12,00,30,38.50
2021,02,12,00,31,42.60
2021,02,12,00,32,39.00
2021,02,12,00,33,33.10
2021,02,12,00,34,32.40
2021,02,12,00,35,26.20
2021,02,12,00,36,27.40
2021,02,12,00,37,32.80
2021,02,12,00,38,27.30
2021,02,12,00,39,27.70
2021,02,12,00,40,28.30
2021,02,12,00,41,32.40
2021,02,12,00,42,34.50
2021,02,12,00,43,31.30
2021,02,12,00,44,23.80
2021,02,12,00,45,36.90
2021,02,12,00,46,30.20
2021,02,12,00,47,30.90
2021,02,12,00,48,34.70
2021,02,12,00,49,40.70
2021,02,12,00,50,28.20
2021,02,12,00,51,31.30
2021,02,12,00,52,30.80
2021,02,12,00,53,26.60
2021,02,12,00,54,28.10
2021,02,12,00,55,35.80
2021,02,12,00,56,32.30
2021,02,12,00,57,27.30
2021,02,12,00,58,23.10
2021,02,12,00,59,25.30
2021,02,12,01,00,34.90
2021,02,12,01,01,33.90
2021,02,12,01,02,22.70
2021,02,12,01,03,24.30
2021,02,12,01,04,28.70
2021,02,12,01,05,27.10
2021,02,12,01,06,26.20
2021,02,12,01,07,25.60
2021,02,12,01,08,29.20
2021,02,12,01,09,26.70
2021,02,12,01,10,25.10
2021,02,12,01,11,19.20
2021,02,12,01,12,17.00
2021,02,12,01,13,23.10
2021,02,12,01,14,26.20
2021,02,12,01,15,25.70
2021,02,12,01,16,20.90
2021,02,12,01,17,28.20
2021,02,12,01,18,34.10
2021,02,12,01,19,22.00
2021,02,12,01,20,16.20
2021,02,12,01,21,20.70
2021,02,12,01,22,22.70
2021,02,12,01,23,31.60
2021,02,12,01,24,33.10
2021,02,12,01,25,31.70
2021,02,12,01,26,28.60
2021,02,12,01,27,28.30
2021,02,12,01,28,26.30
2021,02,12,01,29,21.30
2021,02,12,01,30,28.30
2021,02,12,01,31,20.80
2021,02,12,01,32,24.40
2021,02,12,01,33,32.00
2021,02,12,01,34,35.10
2021,02,12,01,35,20.80
2021,02,12,01,36,26.10
2021,02,12,01,37,23.50
2021,02,12,01,38,33.90
2021,02,12,01,39,31.90
2021,02,12,01,40,34.10
2021,02,12,01,41,26.20
2021,02,12,01,42,23.30
2021,02,12,01,43,23.60
2021,02,12,01,44,24.60
2021,02,12,01,45,30.70
2021,02,12,01,46,25.60
2021,02,12,01,47,29.40
2021,02,12,01,48,24.80
2021,02,12,01,49,20.50
2021,02,12,01,50,21.30
2021,02,12,01,51,30.10
2021,02,12,01,52,26.00
2021,02,12,01,53,20.60
2021,02,12,01,54,20.30
2021,02,12,01,55,24.80
2021,02,12,01,56,22.60
2021,02,12,01,57,31.20
2021,02,12,01,58,26.90
2021,02,12,01,59,21.80
2021,02,12,02,00,24.60
2021,02,12,02,01,21.00
2021,02,12,02,02,15.10
2021,02,12,02,03,13.60
2021,02,12,02,04,20.50
2021,02,12,02,05,20.60
2021,02,12,02,06,24.00
2021,02,12,02,07,18.70
2021,02,12,02,08,16.90
2021,02,12,02,09,22.60
2021,02,12,02,10,24.10
2021,02,12,02,11,24.10
2021,02,12,02,12,22.40
2021,02,12,02,13,26.40
2021,02,12,02,14,21.00
2021,02,12,02,15,23.00
2021,02,12,02,16,24.40
2021,02,12,02,17,26.90
2021,02,12,02,18,14.40
2021,02,12,02,19,25.80
2021,02,12,02,20,18.60
2021,02,12,02,21,13.30
2021,02,12,02,22,20.70
2021,02,12,02,23,12.80
2021,02,12,02,24,19.00
2021,02,12,02,25,29.80
2021,02,12,02,26,27.60
2021,02,12,02,27,20.20
2021,02,12,02,28,24.90
2021,02,12,02,29,32.60
2021,02,12,02,30,25.30
2021,02,12,02,31,31.10
2021,02,12,02,32,24.70
2021,02,12,02,33,18.10
2021,02,12,02,34,22.00
2021,02,12,02,35,26.60
2021,02,12,02,36,25.50
2021,02,12,02,37,18.30
2021,02,12,02,38,21.80
2021,02,12,02,39,23.10
2021,02,12,02,40,28.00
2021,02,12,02,41,17.00
2021,02,12,02,42,16.20
2021,02,12,02,43,20.90
2021,02,12,02,44,20.10
2021,02,12,02,45,31.60
2021,02,12,02,46,29.80
2021,02,12,02,47,28.90
2021,02,12,02,48,30.20
2021,02,12,02,49,34.10
2021,02,12,02,50,29.20
2021,02,12,02,51,28.10
2021,02,12,02,52,28.80
2021,02,12,02,53,27.90
2021,02,12,02,54,23.40
2021,02,12,02,55,19.80
2021,02,12,02,56,17.70
2021,02,12,02,57,35.00
2021,02,12,02,58,32.10
2021,02,12,02,59,23.30
2021,02,12,03,00,34.80
2021,02,12,03,01,37.10
2021,02,12,03,02,30.50
2021,02,12,03,03,34.80
2021,02,12,03,04,32.40
2021,02,12,03,05,27.50
2021,02,12,03,06,29.70
2021,02,12,03,07,29.30
2021,02,12,03,08,27.20
2021,02,12,03,09,27.60
2021,02,12,03,10,19.20
2021,02,12,03,11,19.20
2021,02,12,03,12,25.70
2021,02,12,03,13,22.80
2021,02,12,03,14,24.70
2021,02,12,03,15,19.90
2021,02,12,03,16,26.80
2021,02,12,03,17,23.30
2021,02,12,03,18,17.90
2021,02,12,03,19,19.30
2021,02,12,03,20,23.00
2021,02,12,03,21,28.70
2021,02,12,03,22,30.30
2021,02,12,03,23,27.90
2021,02,12,03,24,34.80
2021,02,12,03,25,36.00
2021,02,12,03,26,33.10
2021,02,12,03,27,25.70
2021,02,12,03,28,27.60
2021,02,12,03,29,24.90
2021,02,12,03,30,24.90
2021,02,12,03,31,32.50
2021,02,12,03,32,24.10
2021,02,12,03,33,27.70
2021,02,12,03,34,27.20
2021,02,12,03,35,30.90
2021,02,12,03,36,33.60
2021,02,12,03,37,24.60
2021,02,12,03,38,26.80
2021,02,12,03,39,34.40
2021,02,12,03,40,25.00
2021,02,12,03,41,27.90
2021,02,12,03,42,26.50
2021,02,12,03,43,28.00
2021,02,12,03,44,37.50
2021,02,12,03,45,35.30
2021,02,12,03,46,37.80
2021,02,12,03,47,32.70
2021,02,12,03,48,29.30
2021,02,12,03,49,33.10
2021,02,12,03,50,28.50
2021,02,12,03,51,32.10
2021,02,12,03,52,41.30
2021,02,12,03,53,33.30
2021,02,12,03,54,35.50
2021,02,12,03,55,38.80
2021,02,12,03,56,31.60
2021,02,12,03,57,25.40
2021,02,12,03,58,28.20
2021,02,12,03,59,28.20
2021,02,12,04,00,28.30
2021,02,12,04,01,33.40
2021,02,12,04,02,33.00
2021,02,12,04,03,29.00
2021,02,12,04,04,25.70
2021,02,12,04,05,24.10
2021,02,12,04,06,21.20
2021,02,12,04,07,21.30
2021,02,12,04,08,26.80
2021,02,12,04,09,30.60
2021,02,12,04,10,25.20
2021,02,12,04,11,19.30
2021,02,12,04,12,19.60
2021,02,12,04,13,21.30
2021,02,12,04,14,26.70
2021,02,12,04,15,32.70
2021,02,12,04,16,31.10
2021,02,12,04,17,30.30
2021,02,12,04,18,41.90
2021,02,12,04,19,33.80
2021,02,12,04,20,25.60
2021,02,12,04,21,28.60
2021,02,12,04,22,27.00
2021,02,12,04,23,25.40
2021,02,12,04,24,31.00
2021,02,12,04,25,21.30
2021,02,12,04,26,25.40
2021,02,12,04,27,32.10
2021,02,12,04,28,29.20
2021,02,12,04,29,29.40
2021,02,12,04,30,41.40
2021,02,12,04,31,30.40
2021,02,12,04,32,27.70
2021,02,12,04,33,25.20
2021,02,12,04,34,27.50
2021,02,12,04,35,24.10
2021,02,12,04,36,33.00
2021,02,12,04,37,38.60
2021,02,12,04,38,34.10
2021,02,12,04,39,25.40
2021,02,12,04,40,22.70
2021,02,12,04,41,27.40
2021,02,12,04,42,24.10
2021,02,12,04,43,26.30
2021,02,12,04,44,32.10
2021,02,12,04,45,39.50
2021,02,12,04,46,31.20
2021,02,12,04,47,22.50
2021,02,12,04,48,19.50
2021,02,12,04,49,24.90
2021,02,12,04,50,29.60
2021,02,12,04,51,27.90
2021,02,12,04,52,22.40
2021,02,12,04,53,21.50
2021,02,12,04,54,32.00
2021,02,12,04,55,27.50
2021,02,12,04,56,25.20
2021,02,12,04,57,27.60
2021,02,12,04,58,28.90
2021,02,12,04,59,32.50
2021,02,12,05,00,35.80
2021,02,12,05,01,30.60
2021,02,12,05,02,28.60
2021,02,12,05,03,25.40
2021,02,12,05,04,32.70
2021,02,12,05,05,32.10
2021,02,12,05,06,28.30
2021,02,12,05,07,21.90
2021,02,12,05,08,35.50
2021,02,12,05,09,28.50
2021,02,12,05,10,27.00
2021,02,12,05,11,24.20
2021,02,12,05,12,28.40
2021,02,12,05,13,27.10
2021,02,12,05,14,36.20
2021,02,12,05,15,34.40
2021,02,12,05,16,34.30
2021,02,12,05,17,38.80
2021,02,12,05,18,31.60
2021,02,12,05,19,27.30
2021,02,12,05,20,31.10
2021,02,12,05,21,31.30
2021,02,12,05,22,39.00
2021,02,12,05,23,27.90
2021,02,12,05,24,37.90
2021,02,12,05,25,36.60
2021,02,12,05,26,33.70
2021,02,12,05,27,25.60
2021,02,12,05,28,35.00
2021,02,12,05,29,24.40
2021,02,12,05,30,22.50
2021,02,12,05,31,23.40
2021,02,12,05,32,31.50
2021,02,12,05,33,27.60
2021,02,12,05,34,33.10
2021,02,12,05,35,29.60
2021,02,12,05,36,33.20
2021,02,12,05,37,30.80
2021,02,12,05,38,27.90
2021,02,12,05,39,27.50
2021,02,12,05,40,26.90
2021,02,12,05,41,28.30
2021,02,12,05,42,25.90
2021,02,12,05,43,31.00
2021,02,12,05,44,25.90
2021,02,12,05,45,26.40
2021,02,12,05,46,21.20
2021,02,12,05,47,19.10
2021,02,12,05,48,14.30
2021,02,12,05,49,29.00
2021,02,12,05,50,30.90
2021,02,12,05,51,24.60
2021,02,12,05,52,25.60
2021,02,12,05,53,23.70
2021,02,12,05,54,24.50
2021,02,12,05,55,18.60
2021,02,12,05,56,28.70
2021,02,12,05,57,29.30
2021,02,12,05,58,21.80
2021,02,12,05,59,18.90
2021,02,12,06,00,31.60
2021,02,12,06,01,33.90
2021,02,12,06,02,28.00
2021,02,12,06,03,33.90
2021,02,12,06,04,31.70
2021,02,12,06,05,30.20
2021,02,12,06,06,32.90
2021,02,12,06,07,33.70
2021,02,12,06,08,32.40
2021,02,12,06,09,29.00
2021,02,12,06,10,35.70
2021,02,12,06,11,34.50
2021,02,12,06,12,41.80
2021,02,12,06,13,40.20
2021,02,12,06,14,27.90
2021,02,12,06,15,33.90
2021,02,12,06,16,24.10
2021,02,12,06,17,29.30
2021,02,12,06,18,31.70
2021,02,12,06,19,35.10
2021,02,12,06,20,28.60
2021,02,12,06,21,39.90
2021,02,12,06,22,36.20
2021,02,12,06,23,34.90
2021,02,12,06,24,29.50
2021,02,12,06,25,25.30
2021,02,12,06,26,20.90
2021,02,12,06,27,20.70
2021,02,12,06,28,27.10
2021,02,12,06,29,37.50
2021,02,12,06,30,25.80
2021,02,12,06,31,26.70
2021,02,12,06,32,24.80
2021,02,12,06,33,19.10
2021,02,12,06,34,24.40
2021,02,12,06,35,26.30
2021,02,12,06,36,28.90
2021,02,12,06,37,34.20
2021,02,12,06,38,19.20
2021,02,12,06,39,20.30
2021,02,12,06,40,26.10
2021,02,12,06,41,34.00
2021,02,12,06,42,32.00
2021,02,12,06,43,26.90
2021,02,12,06,44,31.60
2021,02,12,06,45,32.00
2021,02,12,06,46,15.70
2021,02,12,06,47,23.60
2021,02,12,06,48,31.50
2021,02,12,06,49,25.60
2021,02,12,06,50,31.40
2021,02,12,06,51,32.60
2021,02,12,06,52,26.70
2021,02,12,06,53,33.40
2021,02,12,06,54,37.70
2021,02,12,06,55,37.90
2021,02,12,06,56,42.60
2021,02,12,06,57,32.30
2021,02,12,06,58,27.80
2021,02,12,06,59,29.60
2021,02,12,07,00,29.40
2021,02,12,07,01,29.00
2021,02,12,07,02,35.10
2021,02,12,07,03,35.20
2021,02,12,07,04,31.00
2021,02,12,07,05,29.70
2021,02,12,07,06,34.40
2021,02,12,07,07,30.10
2021,02,12,07,08,25.70
2021,02,12,07,09,25.90
2021,02,12,07,10,33.90
2021,02,12,07,11,26.80
2021,02,12,07,12,35.30
2021,02,12,07,13,31.50
2021,02,12,07,14,32.70
2021,02,12,07,15,33.50
2021,02,12,07,16,24.00
2021,02,12,07,17,20.10
2021,02,12,07,18,25.80
2021,02,12,07,19,27.90
2021,02,12,07,20,34.50
2021,02,12,07,21,38.90
2021,02,12,07,22,30.90
2021,02,12,07,23,24.80
2021,02,12,07,24,36.50
2021,02,12,07,25,31.20
2021,02,12,07,26,34.20
2021,02,12,07,27,34.40
2021,02,12,07,28,38.10
2021,02,12,07,29,30.60
2021,02,12,07,30,23.70
2021,02,12,07,31,29.80
2021,02,12,07,32,30.90
2021,02,12,07,33,37.20
2021,02,12,07,34,29.30
2021,02,12,07,35,25.20
2021,02,12,07,36,17.60
2021,02,12,07,37,16.80
2021,02,12,07,38,27.80
2021,02,12,07,39,30.40
2021,02,12,07,40,23.60
2021,02,12,07,41,31.30
2021,02,12,07,42,34.50
2021,02,12,07,43,29.20
2021,02,12,07,44,29.50
2021,02,12,07,45,31.90
2021,02,12,07,46,33.60
2021,02,12,07,47,29.30
2021,02,12,07,48,32.80
2021,02,12,07,49,31.70
2021,02,12,07,50,31.10
2021,02,12,07,51,23.10
2021,02,12,07,52,29.80
2021,02,12,07,53,22.70
2021,02,12,07,54,18.60
2021,02,12,07,55,26.10
2021,02,12,07,56,31.00
2021,02,12,07,57,28.00
2021,02,12,07,58,38.70
2021,02,12,07,59,34.00
2021,02,12,08,00,25.80
2021,02,12,08,01,19.60
2021,02,12,08,02,22.90
2021,02,12,08,03,29.10
2021,02,12,08,04,28.10
2021,02,12,08,05,30.70
2021,02,12,08,06,37.20
2021,02,12,08,07,30.60
2021,02,12,08,08,32.40
2021,02,12,08,09,31.20
2021,02,12,08,10,38.30
2021,02,12,08,11,36.30
2021,02,12,08,12,36.70
2021,02,12,08,13,43.70
2021,02,12,08,14,33.40
2021,02,12,08,15,39.20
2021,02,12,08,16,34.70
2021,02,12,08,17,28.90
2021,02,12,08,18,32.40
2021,02,12,08,19,31.10
2021,02,12,08,20,32.30
2021,02,12,08,21,25.70
2021,02,12,08,22,37.20
2021,02,12,08,23,35.50
2021,02,12,08,24,37.50
2021,02,12,08,25,41.20
2021,02,12,08,26,41.20
2021,02,12,08,27,36.30
2021,02,12,08,28,35.30
2021,02,12,08,29,35.00
2021,02,12,08,30,46.20
2021,02,12,08,31,37.50
2021,02,12,08,32,43.80
2021,02,12,08,33,39.70
2021,02,12,08,34,34.20
2021,02,12,08,35,26.20
2021,02,12,08,36,29.30
2021,02,12,08,37,29.40
2021,02,12,08,38,38.80
2021,02,12,08,39,45.00
2021,02,12,08,40,39.70
2021,02,12,08,41,39.00
2021,02,12,08,42,42.50
2021,02,12,08,43,41.90
2021,02,12,08,44,40.50
2021,02,12,08,45,35.80
2021,02,12,08,46,43.60
2021,02,12,08,47,37.50
2021,02,12,08,48,39.00
2021,02,12,08,49,33.40
2021,02,12,08,50,37.30
2021,02,12,08,51,37.20
2021,02,12,08,52,34.70
2021,02,12,08,53,32.00
2021,02,12,08,54,28.30
2021,02,12,08,55,39.70
2021,02,12,08,56,40.70
2021,02,12,08,57,43.70
2021,02,12,08,58,35.40
2021,02,12,08,59,41.20
2021,02,12,09,00,37.50
2021,02,12,09,01,38.50
2021,02,12,09,02,36.30
2021,02,12,09,03,32.10
2021,02,12,09,04,21.90
2021,02,12,09,05,24.10
2021,02,12,09,06,26.80
2021,02,12,09,07,26.70
2021,02,12,09,08,28.90
2021,02,12,09,09,26.00
2021,02,12,09,10,28.10
2021,02,12,09,11,38.60
2021,02,12,09,12,30.50
2021,02,12,09,13,31.50
2021,02,12,09,14,36.00
2021,02,12,09,15,30.40
2021,02,12,09,16,40.10
2021,02,12,09,17,34.90
2021,02,12,09,18,33.80
2021,02,12,09,19,32.60
2021,02,12,09,20,30.90
2021,02,12,09,21,23.30
2021,02,12,09,22,30.00
2021,02,12,09,23,30.20
2021,02,12,09,24,37.70
2021,02,12,09,25,40.40
2021,02,12,09,26,37.40
2021,02,12,09,27,32.80
2021,02,12,09,28,29.30
2021,02,12,09,29,34.60
2021,02,12,09,30,34.10
2021,02,12,09,31,31.10
2021,02,12,09,32,26.90
2021,02,12,09,33,28.10
2021,02,12,09,34,32.10
2021,02,12,09,35,32.40
2021,02,12,09,36,30.10
2021,02,12,09,37,19.50
2021,02,12,09,38,17.80
2021,02,12,09,39,19.20
2021,02,12,09,40,20.00
2021,02,12,09,41,26.10
2021,02,12,09,42,29.10
2021,02,12,09,43,30.00
2021,02,12,09,44,27.30
2021,02,12,09,45,23.60
2021,02,12,09,46,17.70
2021,02,12,09,47,17.70
2021,02,12,09,48,17.70
2021,02,12,09,49,17.70
2021,02,12,09,50,33.90
2021,02,12,09,51,34.00
2021,02,12,09,52,33.70
2021,02,12,09,53,35.80
2021,02,12,09,54,38.90
2021,02,12,09,55,35.90
2021,02,12,09,56,36.20
2021,02,12,09,57,46.70
2021,02,12,09,58,38.80
2021,02,12,09,59,31.10
2021,02,12,10,00,28.40
2021,02,12,10,01,21.50
2021,02,12,10,02,20.50
2021,02,12,10,03,31.00
2021,02,12,10,04,31.50
2021,02,12,10,05,39.30
2021,02,12,10,06,32.80
2021,02,12,10,07,32.90
2021,02,12,10,08,25.10
2021,02,12,10,09,21.40
2021,02,12,10,10,22.50
2021,02,12,10,11,18.30
2021,02,12,10,12,25.30
2021,02,12,10,13,37.40
2021,02,12,10,14,29.60
2021,02,12,10,15,25.90
2021,02,12,10,16,23.40
2021,02,12,10,17,25.30
2021,02,12,10,18,30.60
2021,02,12,10,19,34.50
2021,02,12,10,20,33.50
2021,02,12,10,21,28.30
2021,02,12,10,22,30.40
2021,02,12,10,23,34.10
2021,02,12,10,24,35.00
2021,02,12,10,25,33.60
2021,02,12,10,26,34.60
2021,02,12,10,27,35.80
2021,02,12,10,28,38.10
2021,02,12,10,29,31.10
2021,02,12,10,30,33.40
2021,02,12,10,31,39.90
2021,02,12,10,32,38.60
2021,02,12,10,33,32.80
2021,02,12,10,34,26.10
2021,02,12,10,35,28.50
2021,02,12,10,36,33.60
2021,02,12,10,37,30.90
2021,02,12,10,38,26.20
2021,02,12,10,39,31.30
2021,02,12,10,40,32.20
2021,02,12,10,41,32.50
2021,02,12,10,42,32.60
2021,02,12,10,43,37.50
2021,02,12,10,44,37.20
2021,02,12,10,45,35.60
2021,02,12,10,46,32.40
2021,02,12,10,47,28.40
2021,02,12,10,48,23.10
2021,02,12,10,49,27.30
2021,02,12,10,50,30.90
2021,02,12,10,51,19.10
2021,02,12,10,52,22.00
2021,02,12,10,53,24.40
2021,02,12,10,54,25.30
2021,02,12,10,55,24.70
2021,02,12,10,56,24.10
2021,02,12,10,57,16.20
2021,02,12,10,58,15.20
2021,02,12,10,59,14.00
2021,02,12,11,00,8.60
2021,02,12,11,01,15.50
2021,02,12,11,02,18.80
2021,02,12,11,03,21.70
2021,02,12,11,04,22.80
2021,02,12,11,05,21.20
2021,02,12,11,06,11.50
2021,02,12,11,07,14.20
2021,02,12,11,08,17.20
2021,02,12,11,09,23.00
2021,02,12,11,10,17.90
2021,02,12,11,11,18.90
2021,02,12,11,12,14.90
2021,02,12,11,13,14.10
2021,02,12,11,14,18.70
2021,02,12,11,15,16.70
2021,02,12,11,16,13.00
2021,02,12,11,17,22.40
2021,02,12,11,18,18.70
2021,02,12,11,19,16.20
2021,02,12,11,20,16.40
2021,02,12,11,21,14.10
2021,02,12,11,22,33.50
2021,02,12,11,23,32.40
2021,02,12,11,24,29.50
2021,02,12,11,25,28.30
2021,02,12,11,26,28.60
2021,02,12,11,27,32.80
2021,02,12,11,28,35.10
2021,02,12,11,29,35.30
2021,02,12,11,30,33.50
2021,02,12,11,31,27.90
2021,02,12,11,32,23.40
2021,02,12,11,33,16.20
2021,02,12,11,34,18.50
2021,02,12,11,35,17.20
2021,02,12,11,36,22.80
2021,02,12,11,37,21.70
2021,02,12,11,38,27.20
2021,02,12,11,39,16.30
2021,02,12,11,40,20.30
2021,02,12,11,41,22.10
2021,02,12,11,42,17.60
2021,02,12,11,43,17.10
2021,02,12,11,44,16.30
2021,02,12,11,45,15.50
2021,02,12,11,46,13.90
2021,02,12,11,47,13.70
2021,02,12,11,48,17.10
2021,02,12,11,49,16.30
2021,02,12,11,50,23.30
2021,02,12,11,51,28.80
2021,02,12,11,52,34.10
2021,02,12,11,53,32.80
2021,02,12,11,54,29.70
2021,02,12,11,55,31.60
2021,02,12,11,56,30.00
2021,02,12,11,57,25.10
2021,02,12,11,58,22.80
2021,02,12,11,59,23.80
2021,02,12,12,00,32.40
2021,02,12,12,01,23.80
2021,02,12,12,02,25.40
2021,02,12,12,03,30.30
2021,02,12,12,04,24.90
2021,02,12,12,05,31.30
2021,02,12,12,06,32.70
2021,02,12,12,07,26.70
2021,02,12,12,08,24.40
2021,02,12,12,09,31.70
2021,02,12,12,10,34.60
2021,02,12,12,11,34.40
2021,02,12,12,12,35.80
2021,02,12,12,13,32.00
2021,02,12,12,14,29.00
2021,02,12,12,15,34.70
2021,02,12,12,16,30.20
2021,02,12,12,17,25.30
2021,02,12,12,18,28.20
2021,02,12,12,19,29.00
2021,02,12,12,20,31.70
2021,02,12,12,21,24.90
2021,02,12,12,22,23.40
2021,02,12,12,23,32.10
2021,02,12,12,24,32.00
2021,02,12,12,25,25.70
2021,02,12,12,26,27.80
2021,02,12,12,27,31.60
2021,02,12,12,28,30.10
2021,02,12,12,29,31.50
2021,02,12,12,30,24.70
2021,02,12,12,31,20.60
2021,02,12,12,32,20.00
2021,02,12,12,33,20.80
2021,02,12,12,34,26.10
2021,02,12,12,35,29.00
2021,02,12,12,36,24.30
2021,02,12,12,37,23.40
2021,02,12,12,38,23.80
2021,02,12,12,39,27.30
2021,02,12,12,40,36.80
2021,02,12,12,41,28.20
2021,02,12,12,42,32.90
2021,02,12,12,43,30.10
2021,02,12,12,44,27.60
2021,02,12,12,45,25.80
2021,02,12,12,46,24.10
2021,02,12,12,47,32.20
2021,02,12,12,48,33.80
2021,02,12,12,49,31.30
2021,02,12,12,50,33.10
2021,02,12,12,51,30.40
2021,02,12,12,52,24.60
2021,02,12,12,53,26.90
2021,02,12,12,54,33.20
2021,02,12,12,55,33.80
2021,02,12,12,56,33.80
2021,02,12,12,57,33.80
2021,02,12,12,58,33.80
2021,02,12,12,59,14.00
2021,02,12,13,00,4.00
2021,02,12,13,01,7.60
2021,02,12,13,02,6.70
2021,02,12,13,03,5.90
2021,02,12,13,04,2.90
2021,02,12,13,05,3.20
2021,02,12,13,06,7.90
2021,02,12,13,07,9.30
2021,02,12,13,08,7.70
2021,02,12,13,09,8.80
2021,02,12,13,10,7.10
2021,02,12,13,11,8.40
2021,02,12,13,12,7.70
2021,02,12,13,13,5.00
2021,02,12,13,14,4.20
2021,02,12,13,15,12.60
2021,02,12,13,16,5.90
2021,02,12,13,17,4.80
2021,02,12,13,18,4.50
2021,02,12,13,19,5.00
2021,02,12,13,20,1.20
2021,02,12,13,21,3.20
2021,02,12,13,22,2.20
2021,02,12,13,23,3.40
2021,02,12,13,24,4.50
2021,02,12,13,25,4.00
2021,02,12,13,26,5.70
2021,02,12,13,27,6.70
2021,02,12,13,28,9.30
2021,02,12,13,29,7.80
2021,02,12,13,30,8.10
2021,02,12,13,31,9.00
2021,02,12,13,32,6.30
2021,02,12,13,33,10.00
2021,02,12,13,34,8.70
2021,02,12,13,35,4.20
2021,02,12,13,36,4.80
2021,02,12,13,37,8.10
2021,02,12,13,38,3.80
2021,02,12,13,39,3.90
2021,02,12,13,40,2.90
2021,02,12,13,41,3.80
2021,02,12,13,42,5.80
2021,02,12,13,43,4.90
2021,02,12,13,44,3.10
2021,02,12,13,45,6.90
2021,02,12,13,46,5.80
2021,02,12,13,47,4.10
2021,02,12,13,48,1.30
2021,02,12,13,49,2.80
2021,02,12,13,50,4.40
2021,02,12,13,51,3.10
2021,02,12,13,52,2.40
2021,02,12,13,53,6.40
2021,02,12,13,54,1.60
2021,02,12,13,55,7.80
2021,02,12,13,56,4.60
2021,02,12,13,57,5.40
2021,02,12,13,58,3.40
2021,02,12,13,59,4.80
2021,02,12,14,00,5.90
2021,02,12,14,01,4.30
2021,02,12,14,02,4.10
2021,02,12,14,03,8.50
2021,02,12,14,04,4.20
2021,02,12,14,05,3.30
2021,02,12,14,06,6.90
2021,02,12,14,07,6.10
2021,02,12,14,08,7.80
2021,02,12,14,09,5.50
2021,02,12,14,10,7.40
2021,02,12,14,11,8.00
2021,02,12,14,12,4.40
2021,02,12,14,13,4.80
2021,02,12,14,14,4.70
2021,02,12,14,15,6.50
2021,02,12,14,16,6.40
2021,02,12,14,17,6.70
2021,02,12,14,18,5.40
2021,02,12,14,19,7.00
2021,02,12,14,20,5.90
2021,02,12,14,21,7.50
2021,02,12,14,22,4.60
2021,02,12,14,23,4.20
2021,02,12,14,24,7.00
2021,02,12,14,25,5.40
2021,02,12,14,26,10.70
2021,02,12,14,27,4.60
2021,02,12,14,28,3.10
2021,02,12,14,29,9.20
2021,02,12,14,30,8.50
2021,02,12,14,31,6.90
2021,02,12,14,32,7.10
2021,02,12,14,33,5.60
2021,02,12,14,34,5.00
2021,02,12,14,35,4.20
2021,02,12,14,36,5.40
2021,02,12,14,37,7.50
2021,02,12,14,38,6.70
2021,02,12,14,39,6.70
2021,02,12,14,40,6.20
2021,02,12,14,41,10.40
2021,02,12,14,42,9.40
2021,02,12,14,43,7.80
2021,02,12,14,44,4.30
2021,02,12,14,45,6.40
2021,02,12,14,46,5.00
2021,02,12,14,47,6.20
2021,02,12,14,48,4.70
2021,02,12,14,49,6.10
2021,02,12,14,50,7.20
2021,02,12,14,51,3.80
2021,02,12,14,52,2.70
2021,02,12,14,53,2.70
2021,02,12,14,54,1.90
2021,02,12,14,55,3.40
2021,02,12,14,56,0.60
2021,02,12,14,57,2.70
2021,02,12,14,58,4.40
2021,02,12,14,59,5.60
2021,02,12,15,00,6.10
2021,02,12,15,01,7.20
2021,02,12,15,02,8.90
2021,02,12,15,03,4.90
2021,02,12,15,04,5.50
2021,02,12,15,05,6.00
2021,02,12,15,06,4.20
2021,02,12,15,07,4.60
2021,02,12,15,08,4.70
2021,02,12,15,09,4.40
2021,02,12,15,10,3.10
2021,02,12,15,11,3.10
2021,02,12,15,12,4.20
2021,02,12,15,13,2.80
2021,02,12,15,14,5.60
2021,02,12,15,15,6.30
2021,02,12,15,16,6.90
2021,02,12,15,17,8.30
2021,02,12,15,18,8.70
2021,02,12,15,19,5.90
2021,02,12,15,20,6.40
2021,02,12,15,21,6.10
2021,02,12,15,22,7.70
2021,02,12,15,23,4.90
2021,02,12,15,24,7.10
2021,02,12,15,25,6.30
2021,02,12,15,26,4.30
2021,02,12,15,27,2.70
2021,02,12,15,28,2.90
2021,02,12,15,29,9.20
2021,02,12,15,30,4.70
2021,02,12,15,31,2.10
2021,02,12,15,32,3.60
2021,02,12,15,33,3.70
2021,02,12,15,34,5.00
2021,02,12,15,35,5.20
2021,02,12,15,36,7.50
2021,02,12,15,37,4.30
2021,02,12,15,38,7.50
2021,02,12,15,39,9.90
2021,02,12,15,40,10.10
2021,02,12,15,41,7.40
2021,02,12,15,42,5.80
2021,02,12,15,43,3.40
2021,02,12,15,44,3.40
2021,02,12,15,45,5.60
2021,02,12,15,46,5.00
2021,02,12,15,47,7.80
2021,02,12,15,48,7.10
2021,02,12,15,49,7.90
2021,02,12,15,50,5.50
2021,02,12,15,51,3.50
2021,02,12,15,52,4.10
2021,02,12,15,53,4.20
2021,02,12,15,54,3.40
2021,02,12,15,55,6.20
2021,02,12,15,56,1.90
2021,02,12,15,57,5.10
2021,02,12,15,58,4.10
2021,02,12,15,59,3.30
2021,02,12,16,00,0.50
2021,02,12,16,01,4.80
2021,02,12,16,02,5.30
2021,02,12,16,03,4.60
2021,02,12,16,04,2.90
2021,02,12,16,05,4.70
2021,02,12,16,06,4.80
2021,02,12,16,07,5.70
2021,02,12,16,08,5.90
2021,02,12,16,09,3.50
2021,02,12,16,10,3.40
2021,02,12,16,11,2.50
2021,02,12,16,12,2.60
2021,02,12,16,13,0.70
2021,02,12,16,14,2.40
2021,02,12,16,15,1.80
2021,02,12,16,16,3.90
2021,02,12,16,17,5.80
2021,02,12,16,18,6.80
2021,02,12,16,19,3.10
2021,02,12,16,20,3.30
2021,02,12,16,21,4.60
2021,02,12,16,22,5.00
2021,02,12,16,23,5.70
2021,02,12,16,24,2.80
2021,02,12,16,25,5.60
2021,02,12,16,26,2.40
2021,02,12,16,27,3.70
2021,02,12,16,28,4.00
2021,02,12,16,29,1.60
2021,02,12,16,30,1.60
2021,02,12,16,31,1.60
2021,02,12,16,32,1.60
2021,02,12,16,33,1.60
2021,02,12,16,34,1.60
2021,02,12,16,35,1.60
2021,02,12,16,36,1.60
2021,02,12,16,37,1.60
2021,02,12,16,38,10.50
2021,02,12,16,39,10.80
2021,02,12,16,40,8.70
2021,02,12,16,41,11.60
2021,02,12,16,42,9.40
2021,02,12,16,43,11.50
2021,02,12,16,44,9.10
2021,02,12,16,45,9.50
2021,02,12,16,46,10.20
2021,02,12,16,47,5.60
2021,02,12,16,48,8.50
2021,02,12,16,49,6.00
2021,02,12,16,50,3.90
2021,02,12,16,51,7.60
2021,02,12,16,52,10.70
2021,02,12,16,53,9.30
2021,02,12,16,54,6.80
2021,02,12,16,55,10.10
2021,02,12,16,56,6.80
2021,02,12,16,57,5.90
2021,02,12,16,58,7.40
2021,02,12,16,59,4.80
2021,02,12,17,00,11.90
2021,02,12,17,01,10.60
2021,02,12,17,02,10.80
2021,02,12,17,03,14.10
2021,02,12,17,04,11.30
2021,02,12,17,05,12.30
2021,02,12,17,06,16.60
2021,02,12,17,07,14.90
2021,02,12,17,08,15.80
2021,02,12,17,09,12.30
2021,02,12,17,10,19.30
2021,02,12,17,11,16.40
2021,02,12,17,12,18.00
2021,02,12,17,13,15.90
2021,02,12,17,14,20.80
2021,02,12,17,15,12.50
2021,02,12,17,16,13.00
2021,02,12,17,17,20.40
2021,02,12,17,18,15.70
2021,02,12,17,19,14.80
2021,02,12,17,20,18.70
2021,02,12,17,21,21.60
2021,02,12,17,22,12.60
2021,02,12,17,23,14.50
2021,02,12,17,24,17.50
2021,02,12,17,25,20.70
2021,02,12,17,26,22.10
2021,02,12,17,27,20.50
2021,02,12,17,28,14.40
2021,02,12,17,29,18.10